Location: Oberwangen
(47.4286°N, 8.9679°E)
Time: 08:33:06
(UTC+00:00)

Cosmos 1447 Rocket - Pass Details

Date: 27 October 2021
Orbit: 953 x 996 km, 82.9° (Epoch: 27 November)

Event Time Altitude Azimuth Distance (km) Brightness Sun altitude
Rises 16:34:21 0° 358° (N) 3,644 7.4 -4.0°
Reaches altitude 10° 16:37:19 10° 11° (N) 2,693 6.6 -4.5°
Maximum altitude 16:42:25 27° 67° (ENE) 1,766 5.3 -5.3°
Drops below altitude 10° 16:47:29 10° 124° (ESE) 2,685 6.4 -6.1°
Sets 16:50:25 0° 136° (SE) 3,631 7.2 -6.6°
